This is the latest recevied weather packets stored in our database for station/object N3TTT-13. If no packets are shown the sender has not sent any weather packets the latest 10 day(s).
| Time | Temp. | Humidity | Pressure | Rain* | Wind** | Luminosity | Snow |
|---|---|---|---|---|---|---|---|
| 1777770650 | 10.56° C | 62% | 1012.6 hPa | 0 mm | - | 0 W/m² | - |
| 1777770346 | 10.56° C | 64% | 1012.5 hPa | 0 mm | - | 0 W/m² | - |
| 1777770044 | 10.56° C | 68% | 1012.2 hPa | 0 mm | - | 0 W/m² | - |
| 1777769741 | 10° C | 66% | 1012.2 hPa | 0 mm | - | 0 W/m² | - |
| 1777769438 | 10.56° C | 65% | 1012.3 hPa | 0 mm | - | 0 W/m² | - |
| 1777769134 | 10° C | 66% | 1012.1 hPa | 0 mm | - | 0 W/m² | - |
| 1777768832 | 10° C | 68% | 1011.9 hPa | 0 mm | - | 0 W/m² | - |
| 1777768529 | 10° C | 67% | 1011.9 hPa | 0 mm | - | 0 W/m² | - |
| 1777768226 | 10° C | 67% | 1011.8 hPa | 0 mm | - | 0 W/m² | - |
| 1777767923 | 10° C | 63% | 1011.9 hPa | 0 mm | - | 0 W/m² | - |
| 1777767620 | 10.56° C | 63% | 1011.6 hPa | 0 mm | - | 0 W/m² | - |
| 1777767316 | 10.56° C | 63% | 1011.9 hPa | 0 mm | - | 0 W/m² | - |
| 1777767014 | 10.56° C | 61% | 1011.7 hPa | 0 mm | - | 0 W/m² | - |
| 1777766711 | 11.11° C | 60% | 1011.7 hPa | 0 mm | - | 0 W/m² | - |
| 1777766408 | 11.11° C | 60% | 1011.8 hPa | 0 mm | - | 0 W/m² | - |
| 1777766104 | 11.67° C | 59% | 1011.6 hPa | 0 mm | - | 0 W/m² | - |
| 1777765802 | 11.67° C | 58% | 1011.7 hPa | 0 mm | - | 1 W/m² | - |
| 1777765498 | 12.22° C | 56% | 1011.6 hPa | 0 mm | - | 2 W/m² | - |
| 1777765195 | 12.78° C | 52% | 1011.7 hPa | 0 mm | - | 5 W/m² | - |
| 1777764890 | 12.78° C | 50% | 1011.5 hPa | 0 mm | - | 7 W/m² | - |
| 1777764587 | 12.78° C | 49% | 1011.5 hPa | 0 mm | - | 9 W/m² | - |
| 1777764284 | 13.33° C | 50% | 1011.5 hPa | 0 mm | - | 12 W/m² | - |
| 1777763981 | 13.33° C | 50% | 1011.6 hPa | 0 mm | - | 15 W/m² | - |
| 1777763678 | 13.33° C | 49% | 1011.5 hPa | 0 mm | - | 18 W/m² | - |
| 1777763376 | 13.33° C | 47% | 1011.5 hPa | 0 mm | - | 20 W/m² | - |
* Rain latest hour (hover to see other rain measurements)
** Current wind speed in m/s (hover to see current wind gust speed)